Regional Weather Roundup
Issued by NWS

Home | Current Version | Previous Version | Text Only | Print | Product List | Glossary Off
Versions: 1 2 3 4 5 6 7 8 9 10 11 12 13 14 15 16 17 18 19 20 21 22 23 24 25 26 27 28 29 30 31 32 33 34 35 36 37 38 39 40 41 42 43 44 45 46 47 48 49 50

000
ASUS43 KOAX 180802
RWRNE

WEATHER ROUNDUP FOR NEBRASKA
NATIONAL WEATHER SERVICE OMAHA NE
200 AM CST THU JAN 18 2018

NOTES: SATELLITE DATA IS BEING USED TO AUGMENT CLOUD COVER ABOVE
       12000 FEET.
       "FAIR" INDICATES FEW OR NO CLOUDS BELOW 12,000 FEET WITH NO
       SIGNIFICANT WEATHER AND/OR OBSTRUCTIONS TO VISIBILITY.


NEZ001>004-019>022-054>056-180900-
NEBRASKA PANHANDLE

CITY           SKY/WX    TMP DP  RH WIND       PRES   REMARKS
SCOTTSBLUFF    CLEAR     18  13  80 E3        30.12F
ALLIANCE       CLEAR     12  10  92 W3        30.09F
CHADRON        CLEAR     22  19  89 SW8       30.05F WCI  12
GORDON         FAIR      29  20  71 SW7       30.05F WCI  21
KIMBALL        CLEAR     26  18  73 W12       30.14F WCI  15
SIDNEY         CLEAR     23  18  81 W9        30.14F WCI  13
$$

NEZ057>060-069>072-079>082-180900-
SOUTHWEST NEBRASKA

CITY           SKY/WX    TMP DP  RH WIND       PRES   REMARKS
NORTH PLATTE   CLEAR     15  10  80 NW6       30.16F WCI   6
IMPERIAL       CLEAR     21  16  81 W8        30.17F WCI  11
LEXINGTON      CLEAR     15  11  84 NW7       30.16F WCI   5
MCCOOK         CLEAR     14  10  84 W6        30.18F WCI   5
OGALLALA       CLEAR     20  17  86 W3        30.15F
$$

NEZ005>010-023>029-035>040-094-180900-
NORTH CENTRAL NEBRASKA

CITY           SKY/WX    TMP DP  RH WIND       PRES   REMARKS
VALENTINE      CLEAR     21  17  84 W7        30.07F WCI  12
AINSWORTH      CLEAR     25  21  84 SW7       30.08F WCI  18
BROKEN BOW     CLEAR     25  14  63 CALM      30.13F
O`NEILL        CLEAR     21  19  91 SW5       30.12F WCI  15
ORD            CLEAR     13  10  88 CALM      30.14F
THEDFORD       CLEAR     23  19  84 W3        30.12F
$$

NEZ041-046>049-061>064-073>077-083>087-180900-
SOUTH CENTRAL NEBRASKA

CITY           SKY/WX    TMP DP  RH WIND       PRES   REMARKS
GRAND ISLAND   CLOUDY    18  12  77 SW8       30.17F WCI   8
AURORA         CLOUDY    14  10  81 SW3       30.18F
HASTINGS       CLOUDY    18  10  71 SW5       30.18F WCI  11
HEBRON         CLOUDY    18  10  69 SW5       30.23F WCI  11
HOLDREGE       CLOUDY    21  14  76 SW5       30.16F WCI  14
KEARNEY        CLOUDY    21  13  71 W7        30.17F WCI  12
YORK           CLOUDY    14  10  85 CALM      30.19F
$$

NEZ011>018-030>034-042>045-180900-
NORTHEAST NEBRASKA

CITY           SKY/WX    TMP DP  RH WIND       PRES   REMARKS
NORFOLK        CLOUDY    20  14  77 SW7       30.15S WCI  11
ALBION         CLOUDY    21  15  78 N5        30.16F WCI  15
BLAIR          CLOUDY    23  13  66 SW14      30.18F WCI  10
COLUMBUS       CLOUDY    19  13  77 SW7       30.19F WCI  10
FREMONT        CLOUDY    21  13  72 SW7       30.20F WCI  12
TEKAMAH        CLOUDY    16  10  77 SE7       30.20F WCI   6
WAYNE          CLOUDY    20  15  81 SW3       30.14F
$$

NEZ050>053-065>068-078-088>093-180900-
SOUTHEAST NEBRASKA

CITY           SKY/WX    TMP DP  RH WIND       PRES   REMARKS
LINCOLN        CLOUDY    19  10  68 SW9       30.24F WCI   8
OMAHA EPPLEY   CLOUDY    14   9  80 SE9       30.23F WCI   2
BEATRICE       CLEAR     20  10  65 SW8       30.25F WCI  10
FALLS CITY     CLOUDY    17   9  70 S6        30.29F WCI   9
NEBRASKA CITY  CLOUDY    20  11  68 SW10      30.25F WCI   9
PLATTSMOUTH    CLOUDY    19  11  68 S10       30.22F WCI   8
$$

NEZ044-045-051>053-067-180900-
OMAHA AREA

CITY           SKY/WX    TMP DP  RH WIND       PRES   REMARKS
OMAHA EPPLEY   CLOUDY    14   9  80 SE9       30.23F WCI   2
BLAIR          CLOUDY    23  13  66 SW14      30.18F WCI  10
FREMONT        CLOUDY    21  13  72 SW7       30.20F WCI  12
MILLARD        CLOUDY    18  12  77 CALM      30.23F
OFFUTT AFB     CLOUDY     7   4  85 SE3       30.23F
PLATTSMOUTH    CLOUDY    19  11  68 S10       30.22F WCI   8
WAHOO          FAIR      21  11  66 SW9       30.21F WCI  11
$$




USA.gov is the U.S. government's official web portal to all federal, state and local government web resources and services.